Regional Weather Roundup
Issued by NWS Charleston, WV

Home | Current Version | Previous Version | Text Only | Print | Product List | Glossary Off
Versions: 1 2 3 4 5 6 7 8 9 10 11 12 13 14 15 16 17 18 19 20 21 22 23 24 25 26 27 28 29 30 31 32 33 34 35 36 37 38 39 40 41 42 43 44 45 46 47 48 49

000
ASUS41 KRLX 022110
RWRRLX
West Virginia Regional Weather Roundup
National Weather Service Charleston WV
500 PM EDT SAT MAY 02 2015

Note: "fair" indicates few or no clouds below 12,000 feet with no
significant weather and/or obstructions to visibility.

WVZ003-022200-
Northern Panhandle of West Virginia

CITY           SKY/WX    TMP DP  RH WIND       PRES   REMARKS
WHEELING       PTSUNNY   71  39  31 NW7       30.02F
$$

WVZ009-022200-
Northwest West Virginia

CITY           SKY/WX    TMP DP  RH WIND       PRES   REMARKS
PARKERSBURG    PTSUNNY   73  35  25 W7G18     30.06F
$$

WVZ006-022200-
Western West Virginia

CITY           SKY/WX    TMP DP  RH WIND       PRES   REMARKS
HUNTINGTON     MOSUNNY   73  39  29 N8        30.05F
$$

WVZ015-022200-
West Central West Virginia

CITY           SKY/WX    TMP DP  RH WIND       PRES   REMARKS
CHARLESTON     PTSUNNY   72  34  24 NW3       30.05F
$$

WVZ022-031-022200-
North Central West Virginia

CITY           SKY/WX    TMP DP  RH WIND       PRES   REMARKS
CLARKSBURG     CLOUDY    68  39  34 N3        30.03F
MORGANTOWN     PTSUNNY   71  35  26 VRB5      30.04F
$$

WVZ025-035-042-045-022200-
Southern West Virginia

CITY           SKY/WX    TMP DP  RH WIND       PRES   REMARKS
BECKLEY        MOSUNNY   66  32  28 N13       30.09F
LOGAN            N/A     70  32  24 CALM      30.04F
BLUEFIELD      PTSUNNY   68  32  26 CALM      30.09F
LEWISBURG      PTSUNNY   69  31  24 NW7       30.06F
$$

WVZ047-022200-
Northern Mountains of West Virginia

CITY           SKY/WX    TMP DP  RH WIND       PRES   REMARKS
ELKINS         PTSUNNY   66  35  31 NW5       30.06F
$$

WVZ052-022200-
Eastern Panhandle of West Virginia

CITY           SKY/WX    TMP DP  RH WIND       PRES   REMARKS
MARTINSBURG    CLOUDY    72  38  29 NW7       29.98F
PETERSBURG     PTSUNNY   70  31  23 NW7G16    30.01F
$$


USA.gov is the U.S. government's official web portal to all federal, state and local government web resources and services.